Location: Silent Lake
(44.9206°N, 78.0708°W)
Time: 06:32:34
(UTC-04:00)

Cosmos 2098 Rocket - Pass Details

Date: 19 April 2018
Orbit: 367 x 1200 km, 82.9° (Epoch: 20 September)

Event Time Altitude Azimuth Distance (km) Brightness Sun altitude
Exits shadow 20:00:49 - 99° (E) 3,002 5.9 -0.5°
Enters shadow 21:19:03 -37° 179° (S) 9,367 8.9 -13.1°
Maximum altitude 21:43:33 43° 95° (E) 884 3.4 -16.7°
